This is the latest recevied weather packets stored in our database for station/object W4ZHA. If no packets are shown the sender has not sent any weather packets the latest 10 day(s).
| Time | Temp. | Humidity | Pressure | Rain* | Wind** | Luminosity | Snow |
|---|---|---|---|---|---|---|---|
| 1777751398 | 19.44° C | 51% | 1014.4 hPa | 0 mm | - | 551 W/m² | - |
| 1777751095 | 20° C | 51% | 1014.8 hPa | 0 mm | - | 550 W/m² | - |
| 1777750790 | 19.44° C | 51% | 1014.8 hPa | 0 mm | - | 155 W/m² | - |
| 1777750488 | 20° C | 49% | 1014.8 hPa | 0 mm | - | 206 W/m² | - |
| 1777750184 | 20° C | 50% | 1014.8 hPa | 0 mm | - | 263 W/m² | - |
| 1777749881 | 20.56° C | 52% | 1014.8 hPa | 0 mm | - | 398 W/m² | - |
| 1777749578 | 19.44° C | 54% | 1014.8 hPa | 0 mm | - | 548 W/m² | - |
| 1777749275 | 19.44° C | 54% | 1015.1 hPa | 0 mm | - | 128 W/m² | - |
| 1777748973 | 18.33° C | 55% | 1014.8 hPa | 0 mm | - | 548 W/m² | - |
| 1777748670 | 18.89° C | 55% | 1014.8 hPa | 0 mm | - | 281 W/m² | - |
| 1777748366 | 18.89° C | 52% | 1014.8 hPa | 0 mm | - | 156 W/m² | - |
| 1777748061 | 18.89° C | 53% | 1014.8 hPa | 0 mm | - | 549 W/m² | - |
| 1777747759 | 18.33° C | 52% | 1015.1 hPa | 0 mm | - | 539 W/m² | - |
| 1777747454 | 18.89° C | 54% | 1015.1 hPa | 0 mm | - | 492 W/m² | - |
| 1777747151 | 18.89° C | 53% | 1015.1 hPa | 0 mm | - | 338 W/m² | - |
| 1777746847 | 18.33° C | 54% | 1015.1 hPa | 0 mm | - | 370 W/m² | - |
| 1777746543 | 18.33° C | 54% | 1015.5 hPa | 0 mm | - | 329 W/m² | - |
| 1777746238 | 18.89° C | 52% | 1015.1 hPa | 0 mm | - | 371 W/m² | - |
| 1777745935 | 17.78° C | 53% | 1015.1 hPa | 0 mm | - | 353 W/m² | - |
| 1777745634 | 18.89° C | 53% | 1015.5 hPa | 0 mm | - | 528 W/m² | - |
| 1777745331 | 18.89° C | 53% | 1015.1 hPa | 0 mm | - | 464 W/m² | - |
| 1777745028 | 18.89° C | 54% | 1015.1 hPa | 0 mm | - | 502 W/m² | - |
| 1777744723 | 18.33° C | 55% | 1015.5 hPa | 0 mm | - | 371 W/m² | - |
| 1777744418 | 17.78° C | 53% | 1015.5 hPa | 0 mm | - | 379 W/m² | - |
| 1777744115 | 17.22° C | 53% | 1015.5 hPa | 0 mm | - | 270 W/m² | - |
* Rain latest hour (hover to see other rain measurements)
** Current wind speed in m/s (hover to see current wind gust speed)